Location: Saint Louis
(38.6272°N, 90.1978°W)
Time: 11:11:13
(UTC-05:00)

Tiangong 1 - Visible Passes

Search period start: 05 May 2016 00:00
Search period end: 15 May 2016 00:00
Orbit: 374 x 390 km, 42.8° (Epoch: 05 May)

Date Brightness Start Highest point End Pass type
(mag) Time Alt. Az. Time Alt. Az. Time Alt. Az.
05 May 2.9 03:57:04 23° ESE 03:57:04 23° ESE 03:58:23 10° ESE visible
06 May 3.2 04:33:13 14° SSE 04:33:13 14° SSE 04:33:58 10° SSE visible
06 May 3.3 21:02:32 10° S 21:03:00 12° S 21:03:00 12° S visible
07 May 1.9 21:37:18 10° SW 21:39:26 34° SSW 21:39:26 34° SSW visible
08 May 2.2 20:37:20 10° SSW 20:40:00 25° SSE 20:42:38 10° E visible
08 May 2.6 22:13:23 10° W 22:15:19 33° W 22:15:19 33° W visible
09 May 0.9 21:12:52 10° WSW 21:16:00 80° SSE 21:18:28 15° ENE visible
09 May 3.9 22:49:53 10° WNW 22:50:40 16° WNW 22:50:40 16° WNW visible
10 May 2.0 21:49:09 10° W 21:52:12 46° NNW 21:53:27 28° NE visible
11 May 1.4 20:48:25 10° WSW 20:51:33 67° NNW 20:54:41 10° ENE visible
11 May 2.7 22:25:34 10° WNW 22:28:06 34° NNW 22:28:06 34° NNW visible
12 May 2.4 21:24:46 10° WNW 21:27:45 39° N 21:30:23 12° ENE visible
12 May 4.0 23:01:44 10° WNW 23:02:31 16° WNW 23:02:31 16° WNW visible
13 May 2.3 22:01:01 10° WNW 22:03:59 37° N 22:04:39 33° NE visible
14 May 2.5 21:00:11 10° WNW 21:03:08 36° N 21:06:05 10° ENE visible
14 May 2.9 22:36:59 10° WNW 22:38:48 30° NW 22:38:48 30° NW visible
